TimeMST,TemperatureF,Dew PointF,Humidity,Sea Level PressureIn,VisibilityMPH,Wind Direction,Wind SpeedMPH,Gust SpeedMPH,PrecipitationIn,Events,Conditions,WindDirDegrees,DateUTC
12:56 AM,30.0,26.1,85,30.19,-9999.0,NW,13.8,-,N/A,,Unknown,310,2012-11-15 07:56:00
1:56 AM,28.9,25.0,85,30.22,-9999.0,NW,11.5,-,N/A,,Unknown,310,2012-11-15 08:56:00
2:56 AM,30.0,26.1,85,30.24,-9999.0,NW,13.8,-,N/A,,Unknown,310,2012-11-15 09:56:00
3:56 AM,28.9,25.0,85,30.27,-9999.0,Calm,Calm,-,N/A,,Unknown,0,2012-11-15 10:56:00
4:56 AM,28.0,24.1,85,30.31,-9999.0,NW,8.1,-,N/A,,Unknown,310,2012-11-15 11:56:00
5:56 AM,25.0,23.0,92,30.33,-9999.0,West,5.8,-,N/A,,Unknown,280,2012-11-15 12:56:00
6:56 AM,25.0,23.0,92,30.35,-9999.0,WNW,6.9,-,N/A,,Unknown,300,2012-11-15 13:56:00
7:56 AM,25.0,23.0,92,30.39,-9999.0,WSW,3.5,-,N/A,,Unknown,240,2012-11-15 14:56:00
8:56 AM,28.9,26.1,89,30.38,-9999.0,SSE,3.5,-,N/A,,Unknown,160,2012-11-15 15:56:00
9:56 AM,37.0,28.9,73,30.38,-9999.0,SE,3.5,-,N/A,,Unknown,140,2012-11-15 16:56:00
10:56 AM,42.1,30.0,62,30.36,-9999.0,SSE,6.9,-,N/A,,Unknown,150,2012-11-15 17:56:00
11:56 AM,46.0,23.0,40,30.32,-9999.0,South,13.8,-,N/A,,Unknown,170,2012-11-15 18:56:00
12:56 PM,46.9,24.1,41,30.30,-9999.0,South,12.7,-,N/A,,Unknown,170,2012-11-15 19:56:00
1:56 PM,48.0,25.0,41,30.28,-9999.0,SSE,16.1,-,N/A,,Unknown,160,2012-11-15 20:56:00
2:56 PM,46.9,25.0,42,30.28,-9999.0,SSE,17.3,-,N/A,,Unknown,160,2012-11-15 21:56:00
3:56 PM,42.1,25.0,51,30.29,-9999.0,SE,15.0,-,N/A,,Unknown,140,2012-11-15 22:56:00
4:56 PM,37.0,25.0,62,30.30,-9999.0,SE,13.8,-,N/A,,Unknown,140,2012-11-15 23:56:00
5:56 PM,33.1,25.0,72,30.31,-9999.0,SE,15.0,-,N/A,,Unknown,140,2012-11-16 00:56:00
6:56 PM,32.0,26.1,79,30.30,-9999.0,SE,13.8,-,N/A,,Unknown,140,2012-11-16 01:56:00
7:56 PM,33.1,26.1,75,30.29,-9999.0,SE,11.5,-,N/A,,Unknown,130,2012-11-16 02:56:00
8:56 PM,32.0,26.1,79,30.27,-9999.0,SE,6.9,-,N/A,,Unknown,130,2012-11-16 03:56:00
9:56 PM,30.9,26.1,82,30.22,-9999.0,SSE,12.7,-,N/A,,Unknown,160,2012-11-16 04:56:00
10:56 PM,30.0,26.1,85,30.18,-9999.0,SSE,18.4,-,N/A,,Unknown,160,2012-11-16 05:56:00
11:56 PM,28.9,26.1,89,30.14,-9999.0,SSE,18.4,-,N/A,,Unknown,160,2012-11-16 06:56:00